Theta_e
318 319 319 319 319 320 320 320 321 321 321 321 322 322 322 322 322 316 306 318 320 347 351 345 337 332 332 321 326 325 307 306 309 311 314 326 327 334 337 332 335 336 334 339 346
318 318 318 318 319 319 319 319 320 320 320 320 321 321 321 324 315 311 324 342 350 352 318 316 312 314 311 314 322 315 308 310 316 315 318 324 329 330 329 329 330 333 340 345 346
317 317 317 317 318 318 319 319 319 319 319 319 320 321 321 322 305 304 338 342 349 344 317 317 312 311 306 310 316 317 312 317 318 318 326 324 326 328 327 323 329 329 336 342 343
316 316 316 317 317 317 318 318 318 318 318 319 319 321 323 313 298 307 351 353 350 330 315 312 308 306 305 305 310 310 318 319 320 323 321 322 326 327 327 326 334 335 339 341 341
315 315 315 316 316 317 317 317 317 317 318 318 319 320 313 302 305 312 347 351 341 324 313 309 306 307 306 307 308 308 309 319 322 320 321 325 323 326 325 332 337 338 340 339 340
315 315 315 315 315 316 317 317 317 316 317 318 319 320 307 298 311 314 329 331 325 314 312 310 309 311 309 307 305 308 315 319 321 320 320 321 323 326 329 336 337 336 337 339 340
314 314 315 316 315 315 316 316 315 316 318 319 319 319 310 304 312 315 313 317 320 311 310 311 311 309 308 305 308 319 315 319 319 317 320 324 318 321 330 335 335 336 337 339 341
315 314 314 314 314 315 315 314 314 317 323 320 321 314 300 315 316 320 313 309 313 309 309 310 311 306 306 308 315 312 313 309 316 319 321 319 310 325 331 330 332 336 337 339 340
315 315 315 315 315 314 313 314 315 322 321 322 313 307 304 322 314 318 314 311 308 306 308 315 310 304 305 304 306 305 305 306 313 319 319 317 312 325 330 329 330 334 335 337 338
314 314 314 314 314 312 312 313 313 317 321 321 320 307 309 307 312 317 314 311 306 306 307 303 301 299 299 303 300 302 305 305 310 316 319 315 314 324 327 327 327 330 332 334 335
314 314 313 313 312 311 308 299 300 300 308 304 305 308 310 312 315 315 314 309 304 300 296 299 297 294 300 303 308 306 309 309 312 316 314 314 315 322 325 325 325 326 328 330 331
314 313 313 312 311 310 303 296 300 298 293 302 304 307 311 312 308 312 314 307 303 297 297 296 294 300 304 305 305 307 306 307 310 316 315 315 315 321 325 325 325 326 327 328 330
313 312 312 310 309 303 297 296 303 301 293 300 303 304 305 310 306 309 312 306 301 297 295 293 297 303 305 303 302 300 301 304 309 314 316 315 311 314 322 324 326 327 328 329 329
312 312 310 309 298 299 298 300 300 300 292 298 301 306 308 310 305 314 314 308 301 299 297 296 301 303 302 303 304 297 304 305 309 310 302 312 298 310 316 319 322 324 325 327 329
312 311 309 308 299 297 299 300 300 299 285 301 302 311 306 303 302 307 312 306 301 300 298 297 298 299 300 303 306 302 306 305 308 305 304 307 300 304 316 314 318 322 325 327 329
311 310 309 303 300 301 303 300 298 291 286 298 306 301 302 302 304 306 307 308 307 301 297 300 302 302 302 305 308 306 301 299 298 299 294 303 303 300 309 316 320 323 326 328 330
308 308 307 305 295 299 298 296 289 285 298 297 296 299 298 298 301 302 301 299 298 293 292 296 298 301 305 300 302 299 295 289 289 292 293 299 301 305 311 320 321 322 325 329 331
307 306 303 305 301 302 294 290 283 293 294 299 299 298 296 298 297 301 298 297 297 296 290 291 290 298 302 300 298 297 296 290 286 287 294 299 299 306 316 317 322 323 325 327 330
306 298 296 300 304 298 290 282 286 292 299 299 297 294 293 298 299 298 295 296 299 297 294 289 290 299 302 303 302 295 293 296 290 287 289 293 298 306 309 310 316 319 322 323 328
300 297 294 304 303 293 286 285 288 296 298 297 292 295 291 293 295 294 294 299 298 300 297 294 288 296 300 302 301 299 299 293 289 285 285 290 293 297 303 308 310 314 318 322 326
293 288 295 304 296 290 283 284 289 295 297 293 294 293 293 293 294 293 295 300 302 301 298 294 291 292 297 296 296 295 293 292 292 290 287 286 291 300 304 308 310 313 319 320 323
294 283 298 300 291 286 286 288 295 294 296 294 295 294 294 296 293 294 295 299 305 303 296 296 294 291 293 297 300 299 296 295 292 288 289 289 292 304 307 308 313 314 318 318 323
290 290 298 297 287 288 292 295 297 296 295 296 295 295 295 293 291 295 297 304 305 303 298 296 289 288 289 291 295 295 296 292 292 291 289 290 293 305 306 309 313 314 315 317 322
293 286 292 293 289 287 287 290 293 302 300 300 297 297 295 294 295 294 298 305 307 306 319 306 289 292 292 292 295 294 297 296 294 290 290 293 297 301 307 308 311 315 316 316 320
295 290 292 288 289 289 287 291 294 294 298 299 296 298 297 292 296 295 299 302 308 313 306 297 292 291 298 297 297 297 298 297 295 295 294 298 298 303 307 309 311 316 317 317 317
294 291 294 291 292 289 289 288 293 295 294 294 295 299 297 295 298 296 299 302 302 304 301 296 292 292 296 298 298 297 299 299 299 299 297 298 298 304 308 311 311 313 315 317 318
294 295 295 292 290 288 289 291 294 296 297 298 297 295 296 301 302 303 303 305 307 303 300 295 292 289 291 295 293 291 298 298 299 301 301 297 304 305 307 309 311 312 314 317 318
Wind_Speed
22 22 22 22 21 21 20 19 18 18 18 19 19 18 18 19 18 2 8 11 9 8 9 9 3 4 5 4 6 3 4 3 7 8 5 6 4 3 5 10 3 5 5 10 16
22 23 22 22 22 22 21 20 19 19 19 18 19 18 18 16 4 7 14 10 6 15 8 9 7 6 3 4 4 4 3 8 7 8 8 10 6 6 4 10 2 7 14 17 17
22 22 23 23 22 22 22 21 21 19 19 18 18 17 15 10 5 9 5 12 13 9 7 8 5 8 5 1 2 3 6 5 5 7 15 12 7 5 10 6 5 13 19 20 17
23 23 23 24 23 23 22 23 23 21 18 18 16 15 14 2 8 1 2 6 16 6 6 5 4 6 5 5 4 1 6 7 7 8 9 14 9 5 9 5 7 14 20 18 18
23 23 23 23 24 24 23 23 23 23 20 17 14 11 4 1 14 5 6 6 11 10 10 8 7 6 6 5 4 4 3 9 8 9 9 14 7 5 6 6 15 18 18 17 15
23 23 23 24 25 25 24 23 23 24 22 16 10 4 2 6 5 4 7 4 8 7 7 7 8 7 5 3 5 4 3 8 7 9 5 10 5 8 4 14 15 18 17 16 16
23 23 23 24 26 26 26 25 26 26 22 11 5 4 2 20 3 5 2 4 6 6 7 4 4 4 5 2 3 6 7 9 4 4 5 12 1 6 11 16 16 16 14 14 14
25 25 25 25 26 27 27 27 26 24 13 6 10 3 9 5 2 6 5 3 5 3 6 5 3 2 3 1 4 4 5 6 4 6 7 6 7 2 15 17 17 15 14 14 14
23 25 26 26 26 25 29 29 25 8 5 12 5 3 11 8 3 3 6 4 7 2 3 4 5 3 1 6 5 3 7 4 3 6 8 3 4 8 13 15 15 16 15 14 13
23 24 26 27 28 28 30 25 6 2 3 3 2 1 4 2 4 4 2 7 4 7 4 2 4 4 3 5 7 7 6 3 6 9 8 5 4 12 14 14 16 16 15 16 15
25 25 26 28 28 27 16 5 5 2 1 7 5 6 10 7 4 2 5 4 4 4 7 5 5 8 11 10 6 7 7 12 3 2 2 5 5 15 15 13 15 15 15 16 16
25 25 26 29 29 27 2 4 5 2 12 12 18 15 14 3 6 9 6 6 3 6 3 4 8 10 7 6 7 8 8 7 1 4 4 1 3 9 16 18 17 16 15 14 15
24 25 25 30 32 4 2 4 4 4 3 10 7 6 7 13 12 17 9 5 5 5 5 6 5 11 8 5 7 5 10 7 14 7 3 6 3 8 11 8 11 13 12 13 15
24 25 26 29 4 5 5 2 6 2 4 10 5 6 4 8 6 11 10 9 4 11 8 6 5 9 9 10 8 7 8 8 10 12 8 7 6 8 12 17 14 17 15 16 15
25 24 24 14 6 6 2 6 7 2 5 5 4 1 3 8 3 6 7 4 10 7 6 8 5 8 5 8 10 10 9 11 8 8 6 3 3 7 13 10 22 20 20 19 18
24 27 22 1 2 11 10 7 3 6 10 7 2 0 4 3 5 3 5 4 6 7 3 9 3 8 12 5 9 9 8 8 6 5 2 9 9 6 8 25 24 16 20 19 17
27 28 17 5 7 3 5 4 4 5 4 4 1 2 3 6 5 3 7 7 7 6 6 3 7 3 4 6 1 6 7 1 3 2 7 4 3 13 11 17 24 23 22 21 19
30 30 5 6 4 3 3 5 6 6 9 5 4 3 1 2 4 6 6 5 1 7 5 8 6 8 4 8 9 7 10 8 7 6 5 4 9 12 22 16 13 9 15 12 17
28 4 3 4 7 3 6 4 9 8 5 2 5 2 3 4 4 4 4 8 10 9 10 7 8 5 5 5 10 4 4 7 9 2 3 5 8 9 7 8 8 13 11 17 19
8 6 5 2 8 4 5 7 7 6 2 1 3 3 1 3 6 5 3 4 5 11 6 9 1 7 6 4 3 10 9 4 3 6 5 5 4 7 5 12 9 8 16 18 18
3 5 3 1 2 5 5 9 8 8 4 6 4 3 2 2 4 3 6 4 6 4 9 8 5 6 6 11 13 3 3 6 6 5 8 4 8 10 11 11 12 14 18 18 18
4 4 3 2 2 1 4 7 5 5 4 5 3 6 7 7 5 7 9 9 7 8 7 12 10 10 12 4 7 11 12 9 7 6 2 5 9 5 12 6 9 14 15 12 13
4 5 5 3 2 3 6 5 3 2 5 3 5 7 6 7 4 8 8 9 12 8 7 7 5 7 7 6 1 5 6 6 6 5 9 7 8 3 6 7 9 12 9 9 10
3 5 5 3 0 2 5 5 4 4 6 5 5 4 3 5 6 7 4 6 6 7 15 14 4 12 17 13 7 6 7 7 8 6 7 9 9 6 10 10 8 9 9 10 12
2 3 1 4 2 4 3 4 3 5 3 3 4 7 9 8 6 8 9 17 5 5 3 9 10 6 19 12 8 8 9 11 9 8 9 8 11 14 13 14 14 15 7 8 10
3 3 4 4 4 4 3 3 3 4 3 6 7 9 5 10 11 10 9 7 6 1 4 3 8 9 19 17 15 13 12 9 8 4 4 4 9 9 6 3 6 10 11 12 13
2 3 2 4 4 3 3 2 7 10 9 13 7 6 11 13 7 11 7 4 5 8 2 2 4 5 15 9 6 6 19 11 7 6 10 10 19 6 6 9 10 11 13 16 16
Wind_Direction
354 351 349 346 344 343 342 340 337 332 330 327 326 327 326 326 317 278 248 207 193 176 126 128 174 206 156 224 181 111 78 169 177 158 200 152 124 141 96 138 198 151 142 139 147
352 349 346 343 340 339 337 334 333 330 327 325 325 327 327 332 311 263 243 190 183 149 140 156 176 177 204 220 191 119 118 195 187 164 170 161 145 152 119 163 94 91 110 133 146
349 347 344 341 339 336 333 330 327 327 324 323 323 324 326 334 323 250 332 199 183 179 131 165 146 152 200 213 210 176 208 167 178 175 147 154 155 175 140 225 202 157 150 151 153
347 344 342 339 336 333 329 325 322 320 320 318 320 321 316 317 295 65 40 191 178 161 135 142 145 132 160 191 210 197 244 166 168 165 140 157 140 154 162 215 168 161 152 155 160
344 341 338 336 334 331 326 321 316 315 314 313 314 317 326 269 248 304 341 97 138 152 169 160 150 145 178 190 168 241 217 167 153 137 148 127 157 163 192 124 128 142 152 164 169
342 339 336 334 332 328 323 318 313 312 310 306 297 303 255 251 234 72 86 137 145 126 178 149 182 185 158 189 149 238 115 135 107 115 98 118 137 117 190 136 138 151 166 172 177
339 339 336 332 331 326 321 315 315 313 307 292 217 176 238 241 182 335 167 195 182 141 146 228 150 116 122 186 234 141 98 68 80 106 107 107 194 209 153 149 155 167 174 181 190
336 336 335 332 329 324 318 315 316 311 303 147 152 145 239 252 310 293 170 187 165 165 138 184 177 155 188 193 55 80 64 109 222 149 174 114 248 142 156 156 166 178 184 189 195
335 334 332 330 328 325 317 315 311 306 115 139 115 126 267 317 271 288 162 173 136 120 207 132 130 180 48 101 49 10 151 125 159 207 145 152 228 172 171 165 172 181 190 196 200
336 335 332 329 329 325 321 312 274 341 174 207 250 33 268 260 307 279 164 153 134 113 90 135 74 103 44 94 189 181 133 147 194 192 162 164 243 163 179 176 181 189 193 196 200
334 333 333 328 328 324 335 358 6 341 234 220 196 250 288 267 272 233 119 99 113 98 156 188 122 177 188 188 183 144 167 176 109 34 66 183 188 177 185 195 197 196 198 201 203
333 332 334 329 326 321 320 22 98 208 302 233 245 248 239 47 309 284 134 134 130 190 135 86 200 201 172 159 164 161 147 206 23 134 135 183 288 191 199 203 201 204 209 206 212
331 330 335 333 322 351 286 233 356 9 253 289 217 227 223 173 217 256 152 149 148 179 190 153 226 145 141 171 140 169 164 169 210 142 82 127 319 191 217 215 218 227 222 216 211
328 328 337 335 31 323 279 18 334 258 13 278 272 266 133 141 230 207 179 148 155 185 155 212 208 158 150 175 148 162 203 163 139 150 198 161 247 228 204 211 214 221 212 216 212
327 322 332 337 277 294 214 330 318 124 330 249 263 148 147 157 214 215 171 101 160 154 127 240 169 158 165 191 163 214 157 153 162 164 122 198 99 265 174 223 227 218 212 212 207
324 315 326 1 257 245 315 329 42 51 250 302 231 122 101 223 292 103 140 92 152 153 122 221 219 168 185 177 182 142 90 55 53 103 112 218 181 254 188 213 230 216 215 207 204
320 311 304 247 230 126 298 29 58 183 300 260 256 18 241 219 218 208 151 154 150 139 192 320 259 212 150 128 91 82 80 7 41 70 210 208 149 230 217 221 222 209 207 203 197
320 309 253 202 234 322 30 61 202 220 236 292 297 311 245 354 230 165 116 160 302 113 129 171 240 177 173 166 169 179 154 155 187 179 219 113 209 246 229 229 245 229 213 192 197
320 320 265 246 178 135 101 185 204 200 227 264 332 58 321 341 84 68 180 187 188 172 175 161 249 283 173 151 142 194 157 188 105 39 90 202 283 310 238 249 219 222 174 195 196
319 321 276 94 147 99 93 225 215 216 277 322 189 232 219 17 37 41 298 215 207 181 161 210 240 223 243 137 214 161 169 99 355 141 220 268 266 230 245 245 223 215 203 203 200
22 337 323 161 118 50 185 223 226 242 219 204 200 231 173 24 186 218 225 264 193 214 178 148 131 269 128 209 206 119 158 55 118 132 168 196 258 214 212 219 217 220 212 198 195
4 324 5 1 60 181 193 202 229 244 205 250 185 190 192 191 234 219 217 217 182 139 165 206 184 213 212 231 190 182 180 161 173 222 213 173 254 229 217 208 221 231 211 200 195
310 278 303 116 208 270 303 289 275 262 230 221 226 205 195 201 225 205 218 231 228 166 197 187 209 213 310 327 263 194 173 130 113 93 188 176 258 268 256 245 225 222 189 185 181
314 322 308 47 298 360 341 269 267 261 253 211 222 264 261 261 227 251 236 270 179 208 236 174 158 184 224 226 173 192 177 174 148 142 173 212 232 258 242 226 229 227 201 186 194
205 251 233 307 315 335 267 293 281 276 323 288 280 216 208 220 224 223 244 270 281 14 76 153 191 199 228 195 179 204 179 168 176 187 169 235 196 233 217 211 209 211 194 165 187
303 336 348 287 293 293 193 272 296 327 272 258 209 255 284 227 205 226 203 208 217 55 44 3 243 193 232 216 201 222 230 181 195 162 249 289 249 220 242 101 154 193 184 200 205
294 273 273 286 311 306 237 348 311 323 261 244 279 341 291 252 288 271 242 277 196 145 291 278 185 121 235 191 155 243 223 214 197 188 186 193 230 182 192 206 222 185 187 204 214